sat.trackr.live / text

‹ back to catalog

PRAETORIAN SDA_609

NORAD 65572 · 2025-203H

PAYLOAD ACTIVE UNKNOWN

§ Identity

Operator
Country
US
Launch date
2025-09-10
Launch site
AFWTR
Launch vehicle
Mass (kg)
RCS (m²)

Purposes: military

External: N2YO · Heavens-Above · Gunter

§ Orbital elements

Epoch: 2026-09-19T23:42:41.199840Z

Period
104.03 min
Inclination
81.3014°
Eccentricity
0.0005843
Mean motion
13.84216437 rev/d
Perigee alt
944.7 km
Apogee alt
953.3 km
Semi-major
7,327.1 km
B*
1.3776e-4
RAAN
283.0150°
Arg perigee
300.7031°
Mean anomaly
59.3549°
Rev number
5,181

§ Raw data

PRAETORIAN SDA_6091 65572U 25203H   26262.98797685  .00000165  00000+0  13776-3 0  99922 65572  81.3014 283.0150 0005843 300.7031  59.3549 13.84216437 51816

JSON: /api/v1/satellites/65572 · /tle

For live sub-satellite position, see the globe view (requires WebGL).

§ Visibility from observer

Set your observer location to see the next 7 days of passes ≥ 10°. The values pass through the URL so the page stays shareable.

No JS? Fill the form by hand. The geolocation button needs JavaScript.